TimeCDT,TemperatureF,Dew PointF,Humidity,Sea Level PressureIn,VisibilityMPH,Wind Direction,Wind SpeedMPH,Gust SpeedMPH,PrecipitationIn,Events,Conditions,WindDirDegrees,DateUTC
12:15 AM,79.7,76.3,89,29.96,10.0,SSE,4.6,-,N/A,,Clear,160,2013-06-11 05:15:00
12:35 AM,79.3,76.1,90,29.97,10.0,SSE,4.6,-,N/A,,Clear,150,2013-06-11 05:35:00
12:55 AM,79.0,76.1,91,29.97,10.0,SSE,3.5,-,N/A,,Clear,150,2013-06-11 05:55:00
1:15 AM,78.8,75.7,90,29.97,10.0,Calm,Calm,-,N/A,,Clear,0,2013-06-11 06:15:00
1:35 AM,78.8,76.1,91,29.97,10.0,SSE,4.6,-,N/A,,Clear,150,2013-06-11 06:35:00
1:55 AM,78.4,75.7,91,29.97,10.0,SSE,6.9,-,N/A,,Clear,160,2013-06-11 06:55:00
2:15 AM,77.9,75.2,91,29.97,10.0,SSE,5.8,-,N/A,,Clear,160,2013-06-11 07:15:00
2:35 AM,77.9,75.2,91,29.97,10.0,South,5.8,-,N/A,,Clear,170,2013-06-11 07:35:00
2:55 AM,77.5,75.2,92,29.97,10.0,South,3.5,-,N/A,,Clear,170,2013-06-11 07:55:00
3:15 AM,77.0,74.7,92,29.97,10.0,Calm,Calm,-,N/A,,Clear,0,2013-06-11 08:15:00
3:35 AM,77.0,74.5,92,29.97,10.0,Calm,Calm,-,N/A,,Clear,0,2013-06-11 08:35:00
3:55 AM,77.0,74.5,92,29.97,10.0,Calm,Calm,-,N/A,,Clear,0,2013-06-11 08:55:00
4:15 AM,76.3,74.1,93,29.97,10.0,Calm,Calm,-,N/A,,Clear,0,2013-06-11 09:15:00
4:35 AM,76.3,73.9,92,29.97,10.0,Calm,Calm,-,N/A,,Clear,0,2013-06-11 09:35:00
4:55 AM,75.7,73.4,92,29.97,10.0,Calm,Calm,-,N/A,,Clear,0,2013-06-11 09:55:00
5:15 AM,76.3,74.1,93,29.98,7.0,Calm,Calm,-,N/A,,Clear,0,2013-06-11 10:15:00
5:35 AM,75.7,73.6,93,29.99,7.0,Calm,Calm,-,N/A,,Clear,0,2013-06-11 10:35:00
5:55 AM,75.2,72.9,92,29.99,5.0,Calm,Calm,-,N/A,,Clear,0,2013-06-11 10:55:00
11:15 AM,87.8,73.0,61,30.03,10.0,SSE,8.1,-,N/A,,Mostly Cloudy,160,2013-06-11 16:15:00
11:35 AM,86.9,73.6,64,30.03,10.0,SW,3.5,-,N/A,,Mostly Cloudy,220,2013-06-11 16:35:00
11:55 AM,87.8,73.6,63,30.03,10.0,SSE,6.9,-,N/A,,Scattered Clouds,150,2013-06-11 16:55:00
12:15 PM,88.9,73.9,61,30.03,10.0,South,6.9,-,N/A,,Scattered Clouds,180,2013-06-11 17:15:00
12:35 PM,90.1,73.2,57,30.02,10.0,South,10.4,-,N/A,,Scattered Clouds,190,2013-06-11 17:35:00
12:55 PM,90.0,72.9,57,30.01,10.0,South,5.8,-,N/A,,Scattered Clouds,190,2013-06-11 17:55:00
1:15 PM,91.6,73.2,55,30.01,10.0,SW,8.1,-,N/A,Thunderstorm,Scattered Clouds,230,2013-06-11 18:15:00
1:35 PM,92.3,73.6,54,30.01,10.0,SSE,9.2,-,N/A,Thunderstorm,Thunderstorm,160,2013-06-11 18:35:00
1:55 PM,86.2,76.3,72,30.01,10.0,SE,9.2,-,N/A,Rain,Light Rain,130,2013-06-11 18:55:00
2:15 PM,82.8,76.6,82,30.02,10.0,SE,6.9,-,N/A,,Scattered Clouds,130,2013-06-11 19:15:00
2:35 PM,83.8,77.2,80,30.01,10.0,SSE,8.1,-,N/A,Rain,Light Rain,150,2013-06-11 19:35:00
2:55 PM,85.1,76.3,75,30.02,10.0,South,8.1,-,N/A,Thunderstorm,Clear,180,2013-06-11 19:55:00
3:15 PM,86.5,77.0,73,30.01,10.0,SSE,6.9,-,N/A,,Clear,160,2013-06-11 20:15:00
3:35 PM,86.9,77.5,74,29.99,10.0,SSE,6.9,-,N/A,,Clear,160,2013-06-11 20:35:00
3:55 PM,87.1,76.1,70,29.99,10.0,SSW,6.9,-,N/A,,Clear,210,2013-06-11 20:55:00
4:15 PM,86.9,76.5,71,29.99,10.0,South,5.8,-,N/A,Rain,Light Rain,190,2013-06-11 21:15:00
4:35 PM,86.9,77.4,73,29.99,10.0,SW,3.5,-,N/A,,Clear,220,2013-06-11 21:35:00
4:55 PM,86.9,76.6,71,29.99,10.0,SSW,3.5,-,N/A,,Clear,210,2013-06-11 21:55:00
5:15 PM,86.9,76.6,71,29.98,10.0,South,4.6,-,N/A,,Clear,190,2013-06-11 22:15:00
5:35 PM,87.1,77.0,72,29.97,10.0,SSW,4.6,-,N/A,,Clear,210,2013-06-11 22:35:00
5:55 PM,86.9,77.0,72,29.97,10.0,South,4.6,-,N/A,,Clear,170,2013-06-11 22:55:00
6:15 PM,87.6,77.7,72,29.96,10.0,South,3.5,-,N/A,,Clear,170,2013-06-11 23:15:00
6:35 PM,87.8,78.1,73,29.96,10.0,SE,3.5,-,N/A,,Clear,140,2013-06-11 23:35:00
6:55 PM,87.3,77.5,73,29.96,10.0,SSE,4.6,-,N/A,,Clear,150,2013-06-11 23:55:00
7:15 PM,86.9,77.5,74,29.96,10.0,SSE,4.6,-,N/A,,Scattered Clouds,160,2013-06-12 00:15:00
7:35 PM,86.9,77.2,73,29.97,10.0,SSE,3.5,-,N/A,,Scattered Clouds,150,2013-06-12 00:35:00
7:55 PM,86.2,77.9,76,29.97,10.0,Calm,Calm,-,N/A,,Clear,0,2013-06-12 00:55:00
8:15 PM,85.3,78.1,79,29.97,10.0,Calm,Calm,-,N/A,,Clear,0,2013-06-12 01:15:00
8:35 PM,84.4,77.9,81,29.97,10.0,Calm,Calm,-,N/A,,Clear,0,2013-06-12 01:35:00
8:55 PM,83.8,78.1,83,29.98,10.0,Calm,Calm,-,N/A,,Clear,0,2013-06-12 01:55:00
9:15 PM,82.9,78.1,85,29.98,10.0,Calm,Calm,-,N/A,,Clear,0,2013-06-12 02:15:00
9:35 PM,82.6,77.4,84,29.98,10.0,Calm,Calm,-,N/A,,Clear,0,2013-06-12 02:35:00
9:55 PM,81.9,75.7,82,29.99,10.0,SSE,4.6,-,N/A,,Clear,160,2013-06-12 02:55:00
10:15 PM,81.5,75.4,82,29.99,10.0,Calm,Calm,-,N/A,,Clear,0,2013-06-12 03:15:00
10:35 PM,80.4,75.2,84,30.00,10.0,Calm,Calm,-,N/A,,Clear,0,2013-06-12 03:35:00
10:55 PM,79.9,75.2,86,30.01,10.0,SSE,3.5,-,N/A,,Clear,160,2013-06-12 03:55:00
11:15 PM,79.7,75.2,86,30.01,10.0,SSE,4.6,-,N/A,,Clear,160,2013-06-12 04:15:00
11:35 PM,79.2,75.2,88,30.01,10.0,South,4.6,-,N/A,,Clear,170,2013-06-12 04:35:00
11:55 PM,79.0,75.2,88,30.01,10.0,South,4.6,-,N/A,,Clear,170,2013-06-12 04:55:00